Location: Unspecified
(0.0000°N, 0.0000°E)
Time: 15:40:43
(UTC+00:00)

Amsat-Oscar-6 - Pass Details

Date: 05 May 2019
Orbit: 1448 x 1455 km, 101.8° (Epoch: 25 May)

Event Time Altitude Azimuth Distance (km) Brightness Sun altitude
Rises 03:53:01 0° 2° (N) 4,534 ? -29.6°
Reaches altitude 10° 03:55:56 10° 356° (N) 3,558 ? -28.9°
Maximum altitude 04:03:42 45° 286° (WNW) 1,885 ? -27.1°
Enters shadow 04:04:02 45° 280° (W) 1,890 ? -27.0°
